| time (UTC) | temp F | wind direction | speed MPH | gust MPH | rain 1hr in | rain 24hr in | rain mn in | humidity % | barometer mb |
| 20260504023547 | 73 | 203 | 4.0 | 10.0 | 0.00 | 0.00 | 0.00 | 47 | 1015.0 |
| 20260504022547 | 73 | 180 | 4.0 | 9.0 | 0.00 | 0.00 | 0.00 | 46 | 1015.1 |
| 20260504021547 | 73 | 180 | 3.0 | 6.0 | 0.00 | 0.00 | 0.00 | 46 | 1015.1 |
| 20260504020547 | 74 | 180 | 5.0 | 11.0 | 0.00 | 0.00 | 0.00 | 45 | 1014.9 |
| 20260504015547 | 74 | 180 | 4.0 | 10.0 | 0.00 | 0.00 | 0.00 | 44 | 1014.8 |
| 20260504014547 | 74 | 180 | 5.0 | 10.0 | 0.00 | 0.00 | 0.00 | 44 | 1014.8 |
| 20260504013547 | 75 | 180 | 4.0 | 12.0 | 0.00 | 0.00 | 0.00 | 43 | 1014.7 |
| 20260504012547 | 75 | 158 | 4.0 | 10.0 | 0.00 | 0.00 | 0.00 | 43 | 1014.7 |
| 20260504011547 | 75 | 135 | 3.0 | 8.0 | 0.00 | 0.00 | 0.00 | 43 | 1014.6 |
| 20260504010547 | 76 | 180 | 4.0 | 10.0 | 0.00 | 0.00 | 0.00 | 42 | 1014.6 |
| 20260504005547 | 76 | 203 | 6.0 | 13.0 | 0.00 | 0.00 | 0.00 | 40 | 1014.5 |
| 20260504004547 | 77 | 180 | 5.0 | 13.0 | 0.00 | 0.00 | 0.00 | 39 | 1014.5 |
| 20260504003549 | 77 | 180 | 5.0 | 12.0 | 0.00 | 0.00 | 0.00 | 39 | 1014.5 |
| 20260504002549 | 77 | 180 | 6.0 | 14.0 | 0.00 | 0.00 | 0.00 | 38 | 1014.5 |
| 20260504001549 | 78 | 180 | 6.0 | 13.0 | 0.00 | 0.00 | 0.00 | 37 | 1014.5 |
| 20260504000549 | 78 | 203 | 5.0 | 12.0 | 0.00 | 0.00 | 0.00 | 37 | 1014.7 |
| 20260503235609 | 79 | 203 | 7.0 | 13.0 | 0.00 | 0.00 | 0.00 | 37 | 1014.5 |
| 20260503234549 | 79 | 180 | 6.0 | 14.0 | 0.00 | 0.00 | 0.00 | 37 | 1014.6 |
| 20260503233549 | 79 | 180 | 5.0 | 13.0 | 0.00 | 0.00 | 0.00 | 38 | 1014.7 |
| 20260503232549 | 79 | 180 | 3.0 | 8.0 | 0.00 | 0.00 | 0.00 | 38 | 1014.9 |
| 20260503231549 | 79 | 180 | 5.0 | 11.0 | 0.00 | 0.00 | 0.00 | 37 | 1014.9 |
| 20260503230549 | 80 | 180 | 6.0 | 16.0 | 0.00 | 0.00 | 0.00 | 36 | 1014.9 |
| 20260503225609 | 80 | 225 | 5.0 | 13.0 | 0.00 | 0.00 | 0.00 | 34 | 1014.9 |
| 20260503224549 | 81 | 248 | 5.0 | 10.0 | 0.00 | 0.00 | 0.00 | 33 | 1014.9 |
| 20260503223549 | 81 | 180 | 5.0 | 14.0 | 0.00 | 0.00 | 0.00 | 35 | 1015.1 |
| 20260503222549 | 82 | 180 | 5.0 | 17.0 | 0.00 | 0.00 | 0.00 | 32 | 1015.2 |
| 20260503221549 | 82 | 158 | 5.0 | 12.0 | 0.00 | 0.00 | 0.00 | 33 | 1015.3 |
| 20260503220609 | 81 | 225 | 6.0 | 11.0 | 0.00 | 0.00 | 0.00 | 37 | 1015.4 |
| 20260503215609 | 82 | 203 | 5.0 | 12.0 | 0.00 | 0.00 | 0.00 | 34 | 1015.4 |
| 20260503214549 | 82 | 225 | 5.0 | 13.0 | 0.00 | 0.00 | 0.00 | 35 | 1015.5 |
| 20260503213549 | 82 | 180 | 6.0 | 12.0 | 0.00 | 0.00 | 0.00 | 35 | 1015.7 |
| 20260503212607 | 82 | 225 | 5.0 | 11.0 | 0.00 | 0.00 | 0.00 | 36 | 1015.8 |
| 20260503211609 | 82 | 225 | 6.0 | 12.0 | 0.00 | 0.00 | 0.00 | 34 | 1016.0 |
| 20260503210549 | 83 | 180 | 6.0 | 12.0 | 0.00 | 0.00 | 0.00 | 33 | 1016.2 |
| 20260503205549 | 83 | 135 | 6.0 | 13.0 | 0.00 | 0.00 | 0.00 | 33 | 1016.4 |
| 20260503204549 | 82 | 180 | 5.0 | 13.0 | 0.00 | 0.00 | 0.00 | 33 | 1016.5 |
| 20260503203549 | 83 | 293 | 4.0 | 11.0 | 0.00 | 0.00 | 0.00 | 32 | 1016.8 |
| 20260503202549 | 82 | 225 | 4.0 | 8.0 | 0.00 | 0.00 | 0.00 | 33 | 1016.9 |
| 20260503201549 | 83 | 180 | 3.0 | 8.0 | 0.00 | 0.00 | 0.00 | 35 | 1017.2 |
| 20260503200609 | 82 | 225 | 3.0 | 10.0 | 0.00 | 0.00 | 0.00 | 35 | 1017.3 |
| 20260503195549 | 82 | 225 | 6.0 | 13.0 | 0.00 | 0.00 | 0.00 | 36 | 1017.6 |
| 20260503194548 | 82 | 248 | 3.0 | 8.0 | 0.00 | 0.00 | 0.00 | 34 | 1017.7 |
| 20260503193549 | 82 | 180 | 5.0 | 14.0 | 0.00 | 0.00 | 0.00 | 34 | 1017.8 |
| 20260503192549 | 82 | 225 | 3.0 | 7.0 | 0.00 | 0.00 | 0.00 | 36 | 1017.9 |
| 20260503191549 | 82 | 248 | 3.0 | 9.0 | 0.00 | 0.00 | 0.00 | 38 | 1018.1 |
| 20260503190549 | 81 | 203 | 4.0 | 9.0 | 0.00 | 0.00 | 0.00 | 38 | 1018.2 |
| 20260503185549 | 81 | 225 | 4.0 | 9.0 | 0.00 | 0.00 | 0.00 | 37 | 1018.4 |
| 20260503184548 | 81 | 225 | 5.0 | 11.0 | 0.00 | 0.00 | 0.00 | 37 | 1018.5 |
| 20260503183549 | 81 | 203 | 6.0 | 15.0 | 0.00 | 0.00 | 0.00 | 39 | 1018.7 |
| 20260503182548 | 81 | 225 | 5.0 | 11.0 | 0.00 | 0.00 | 0.00 | 40 | 1018.8 |
| 20260503181549 | 81 | 203 | 4.0 | 9.0 | 0.00 | 0.00 | 0.00 | 42 | 1019.0 |
| 20260503180549 | 81 | 225 | 4.0 | 13.0 | 0.00 | 0.00 | 0.00 | 44 | 1019.3 |
| 20260503175608 | 81 | 270 | 3.0 | 12.0 | 0.00 | 0.00 | 0.00 | 43 | 1019.4 |
| 20260503174549 | 80 | 225 | 3.0 | 7.0 | 0.00 | 0.00 | 0.00 | 44 | 1019.7 |
| 20260503173549 | 79 | 225 | 4.0 | 10.0 | 0.00 | 0.00 | 0.00 | 43 | 1019.7 |
| 20260503172609 | 79 | 225 | 4.0 | 10.0 | 0.00 | 0.00 | 0.00 | 45 | 1019.9 |
| 20260503171549 | 78 | 225 | 4.0 | 9.0 | 0.00 | 0.00 | 0.00 | 46 | 1020.1 |
| 20260503170609 | 78 | 203 | 5.0 | 11.0 | 0.00 | 0.00 | 0.00 | 47 | 1020.2 |
| 20260503150548 | 72 | 225 | 3.0 | 8.0 | 0.00 | 0.00 | 0.00 | 53 | 1020.6 |
| 20260503130549 | 63 | 248 | 3.0 | 5.0 | 0.00 | 0.00 | 0.00 | 67 | 1020.2 |
| 20260503110608 | 60 | 248 | 3.0 | 7.0 | 0.00 | 0.00 | 0.00 | 68 | 1019.4 |
| 20260503081548 | 62 | 0.0 | 2.0 | 0.00 | 0.00 | 0.00 | 61 | 1019.1 | |
| 20260503080608 | 62 | 203 | 2.0 | 3.0 | 0.00 | 0.00 | 0.00 | 61 | 1019.1 |
| 20260503072548 | 62 | 180 | 2.0 | 5.0 | 0.00 | 0.00 | 0.00 | 61 | 1019.4 |
| 20260503071548 | 62 | 180 | 2.0 | 3.0 | 0.00 | 0.00 | 0.00 | 61 | 1019.4 |
| 20260503070548 | 63 | 180 | 2.0 | 5.0 | 0.00 | 0.00 | 0.00 | 60 | 1019.5 |
| 20260503054548 | 64 | 180 | 2.0 | 4.0 | 0.00 | 0.00 | 0.00 | 55 | 1019.3 |
| 20260503053548 | 65 | 180 | 2.0 | 6.0 | 0.00 | 0.00 | 0.00 | 55 | 1019.3 |
| 20260503052548 | 64 | 180 | 1.0 | 3.0 | 0.00 | 0.00 | 0.00 | 56 | 1019.2 |
| 20260503051548 | 65 | 180 | 1.0 | 2.0 | 0.00 | 0.00 | 0.00 | 55 | 1019.2 |
| 20260503050608 | 65 | 180 | 1.0 | 5.0 | 0.00 | 0.00 | 0.00 | 55 | 1019.2 |
| 20260503045547 | 65 | 180 | 1.0 | 5.0 | 0.00 | 0.00 | 0.00 | 54 | 1019.1 |
| 20260503044607 | 65 | 180 | 1.0 | 5.0 | 0.00 | 0.00 | 0.00 | 54 | 1019.2 |
| 20260503043547 | 66 | 180 | 1.0 | 3.0 | 0.00 | 0.00 | 0.00 | 53 | 1019.2 |
| 20260503042547 | 66 | 158 | 2.0 | 6.0 | 0.00 | 0.00 | 0.00 | 52 | 1019.1 |
| 20260503041547 | 66 | 180 | 1.0 | 5.0 | 0.00 | 0.00 | 0.00 | 52 | 1019.1 |
| 20260503040547 | 66 | 180 | 2.0 | 5.0 | 0.00 | 0.00 | 0.00 | 52 | 1019.0 |
| 20260503035547 | 66 | 203 | 1.0 | 3.0 | 0.00 | 0.00 | 0.00 | 52 | 1019.1 |
| 20260503034547 | 66 | 203 | 1.0 | 3.0 | 0.00 | 0.00 | 0.00 | 52 | 1019.1 |
| 20260503033547 | 66 | 203 | 1.0 | 3.0 | 0.00 | 0.00 | 0.00 | 53 | 1019.0 |
| 20260503032547 | 66 | 0.0 | 1.0 | 0.00 | 0.00 | 0.00 | 55 | 1018.9 | |
| 20260503031547 | 66 | 0.0 | 2.0 | 0.00 | 0.00 | 0.00 | 56 | 1018.8 | |
| 20260503030547 | 65 | 0.0 | 1.0 | 0.00 | 0.00 | 0.00 | 57 | 1018.6 | |
| 20260503025547 | 67 | 0.0 | 1.0 | 0.00 | 0.00 | 0.00 | 52 | 1018.7 | |
| 20260503024607 | 67 | 0.0 | 1.0 | 0.00 | 0.00 | 0.00 | 53 | 1018.6 |